SCP
-0 0 -0 -0 -0 -0 -0 -0 -0 -0 -0 -0 -0 -0 -0 -0 -0 -0 -0 -0 -0 -0 -0 -0 -0 -0 -0 -0 -0 -0 -0 -0 -0 -0 -0 -0 -0 -0 -0 -0 -0 0 0
-0 0 -0 -0 -0 -0 -0 -0 -0 -0 -0 -0 -0 -0 -0 -0 -0 -0 -0 -0 -0 -0 -0 -0 -0 -0 -0 -0 -0 -0 -0 0 -0 -0 -0 -0 -0 -0 -0 -0 0 0 0
-0 -0 -0 -0 -0 -0 -0 -0 -0 -0 -0 -0 -0 -0 -0 -0 -0 -0 -0 -0 -0 -0 -0 -0 -0 -0 -0 -0 -0 -0 -0 -0 -0 -0 -0 0 0 -0 -0 0 0 0 0
0 -0 -0 -0 -0 -0 0 0 -0 -0 -0 -0 -0 -0 -0 -0 -0 -0 -0 -0 -0 -0 -0 -0 -0 -0 -0 -0 -0 -0 -0 -0 -0 -0 0 0 0 -0 -0 0 0 0 0
0 -0 -0 -0 -0 0 0 -0 -0 -0 -0 -0 -0 -0 -0 -0 -0 -0 -0 -0 -0 -0 -0 -0 -0 -0 -0 -0 -0 -0 -0 -0 -0 0 0 0 0 0 0 0 0 0 0
-0 -0 0 0 0 0 -0 -0 -0 -0 -0 -0 -0 -0 -0 -0 -0 -0 -0 -0 -0 -0 -0 -0 -0 -0 -0 -0 -0 -0 -0 -0 -0 0 0 0 0 0 0 0 0 0 0
-0 0 0 0 0 0 -0 -0 -0 -0 -0 -0 -0 -0 -0 -0 -0 -0 -0 -0 -0 -0 -0 -0 -0 -0 -0 -0 -0 -0 -0 -0 0 0 0 0 0 0 0 0 0 0 0
-0 0 0 0 0 0 -0 -0 -0 -0 -0 -0 -0 -0 -0 -0 -0 -0 -0 -0 -0 -0 -0 -0 -0 -0 -0 -0 -0 -0 -0 -0 0 0 0 0 0 0 0 0 0 0 0
-0 0 0 0 0 0 0 -0 -0 -0 -0 -0 -0 -0 -0 -0 -0 -0 -0 -0 -0 -0 -0 -0 -0 -0 -0 -0 -0 -0 -0 -0 0 0 0 0 0 0 0 0 0 0 0
0 0 0 0 0 0 0 0 -0 -0 -0 -0 -0 -0 -0 -0 -0 -0 0 -0 -0 -0 -0 -0 -0 -0 -0 -0 -0 -0 -0 -0 0 0 0 0 0 0 0 0 0 0 0
0 0 0 0 0 0 0 0 0 -0 -0 -0 -0 -0 -0 0 0 0 0 0 -0 -0 -0 -0 0 0 0 0 -0 -0 0 0 0 0 -0 0 0 0 0 0 0 0 0
0 0 0 0 0 0 0 0 0 0 0 0 0 0 0 0 0 0 0 0 -0 -0 0 0 0 0 0 0 0 0 0 0 0 0 -0 0 0 0 0 0 0 0 0
0 0 0 0 -0 0 0 0 0 0 0 0 0 0 0 0 0 0 -0 -0 0 0 0 0 0 0 0 0 0 0 0 0 0 0 0 0 0 0 0 0 0 0 0
0 0 0 0 -0 0 0 0 -0 0 0 0 0 0 0 0 0 0 0 0 0 0 0 0 0 0 0 0 0 0 0 0 0 0 0 0 0 0 0 0 0 0 0
0 0 0 0 0 0 0 0 -0 -0 0 0 0 0 0 0 0 0 0 0 0 0 0 0 0 0 0 0 0 0 0 0 0 0 0 0 0 0 0 0 0 0 0
0 0 0 0 0 0 0 0 0 0 -0 0 0 0 0 0 0 0 0 0 0 0 0 0 0 0 0 0 0 0 0 0 0 0 0 0 0 0 0 0 0 0 0
-0 0 0 0 0 0 0 0 0 0 0 0 0 0 0 0 0 0 0 0 0 0 0 0 0 0 0 0 0 0 0 0 0 0 0 0 0 0 0 0 0 0 0
-0 -0 0 0 0 0 0 0 0 0 0 0 0 0 0 0 0 0 0 0 0 0 0 0 0 0 0 0 0 0 0 0 0 0 0 0 0 0 0 0 0 0 0
-0 -0 -0 0 0 0 0 0 0 0 0 0 0 0 0 0 0 0 0 0 0 0 0 0 0 0 0 0 0 0 0 0 0 0 0 0 0 0 0 0 0 0 0
-0 -0 -0 0 0 0 0 0 0 0 0 0 0 0 0 0 0 0 0 0 0 0 0 0 0 0 0 0 0 0 0 0 0 0 0 0 0 0 0 0 0 0 0
0 0 0 -0 0 0 0 0 0 0 0 0 0 0 0 0 0 0 0 0 0 0 0 0 0 0 0 0 0 0 0 0 0 0 0 0 0 0 0 0 0 0 0
0 0 0 0 0 0 0 0 0 0 0 0 0 0 0 0 0 0 0 0 0 0 0 0 0 0 0 0 0 0 0 0 0 0 0 0 0 0 0 0 0 0 0
0 0 0 0 0 0 0 0 0 0 0 0 0 0 0 0 0 0 0 0 0 0 0 0 0 0 0 0 0 0 0 0 0 0 0 0 0 0 0 0 0 0 0
0 0 0 0 0 0 0 0 0 0 0 0 0 0 0 0 0 0 0 0 0 0 0 0 0 0 0 0 0 0 0 0 0 0 0 0 0 0 0 0 0 0 0
0 0 0 0 0 0 0 0 0 0 0 0 0 0 0 0 0 0 0 0 0 0 0 0 0 0 0 0 0 0 0 0 0 0 0 0 0 0 0 0 0 0 0
0 0 0 0 0 0 0 0 0 0 0 0 0 0 0 0 0 0 0 0 0 0 0 0 0 0 0 0 0 0 0 0 0 0 0 0 0 0 0 0 0 0 0
Wind_Speed_500mb
28 29 18 11 19 24 22 22 22 23 21 21 21 19 17 20 24 25 30 30 26 26 27 28 29 32 30 35 42 42 40 42 45 41 42 44 42 40 41 38 38 38 39
33 30 17 12 16 24 24 22 23 22 20 17 19 25 22 24 25 36 34 34 32 30 30 30 31 32 36 38 43 47 42 39 34 39 38 39 45 39 42 41 39 38 39
33 28 21 15 17 21 23 23 19 17 17 22 22 29 23 26 32 33 32 34 34 32 33 34 35 36 37 39 48 45 40 33 28 32 36 40 41 42 43 42 42 42 43
30 24 19 18 20 22 22 23 21 17 18 24 24 26 24 27 30 32 33 37 32 34 35 37 37 38 38 41 41 38 36 27 20 28 36 40 43 43 43 43 43 43 43
29 26 22 21 24 25 27 30 28 19 24 27 25 26 26 24 26 27 31 32 33 35 36 37 38 38 39 40 40 37 34 33 33 35 37 40 44 40 40 40 40 40 39
27 23 23 25 27 26 31 33 27 30 25 23 26 23 21 17 22 25 26 25 33 35 37 38 38 39 39 39 38 37 35 36 37 35 34 40 41 36 36 38 39 38 37
26 24 26 27 26 29 31 31 27 26 22 21 17 16 17 18 22 24 23 29 32 34 35 36 37 38 38 38 38 38 33 33 34 34 35 34 35 32 35 35 35 34 34
25 28 29 29 28 27 31 33 30 26 17 16 13 15 18 20 23 24 25 28 29 31 33 34 36 37 37 35 33 33 30 27 30 32 30 30 30 25 24 26 28 28 28
26 26 29 27 29 27 28 33 31 25 18 19 16 16 18 20 23 25 24 25 28 29 31 32 33 35 34 31 28 27 27 21 23 26 26 25 22 22 21 21 20 21 20
26 26 27 28 26 27 27 28 28 28 21 15 18 19 19 18 19 22 22 24 26 27 28 27 29 30 29 26 23 22 22 18 18 18 25 25 24 23 25 20 15 14 17
29 25 27 27 27 27 25 26 28 28 24 18 19 19 20 19 19 20 21 23 23 23 23 21 20 19 19 19 21 20 18 14 13 14 20 25 23 22 15 14 14 18 19
38 32 24 25 25 28 28 26 25 27 23 21 19 17 21 19 18 18 18 20 19 18 18 15 14 13 16 16 17 14 12 8 10 13 17 20 20 14 9 17 19 22 26
45 35 29 24 27 21 31 31 28 27 26 24 20 17 20 19 17 15 14 15 14 12 11 12 11 11 13 12 12 11 9 6 7 11 13 14 7 9 19 21 24 28 26
50 41 36 32 29 24 26 29 31 30 29 28 24 19 17 18 16 15 14 12 10 9 7 8 8 6 7 10 11 10 8 6 7 11 11 10 10 13 19 22 26 23 25
57 51 46 44 37 29 28 30 32 33 29 26 24 20 19 18 15 12 11 9 6 5 4 2 4 5 8 13 12 12 12 10 10 10 5 4 8 12 15 19 17 21 30
63 57 51 49 44 36 32 30 30 30 30 29 24 21 18 15 15 13 12 10 8 9 4 2 4 4 7 5 8 8 11 11 13 11 4 5 9 11 15 20 21 24 27
51 55 59 56 49 41 36 36 35 33 33 30 27 28 25 21 20 18 17 15 15 11 10 10 6 1 2 2 8 7 8 11 12 11 8 8 11 15 17 19 21 23 23
49 50 55 61 56 50 45 42 42 39 37 34 32 31 28 25 23 21 20 18 19 13 16 16 8 1 3 3 8 10 12 14 16 12 13 10 7 15 19 16 18 21 21
56 51 52 61 63 58 52 46 45 44 43 38 36 33 31 31 29 26 25 24 22 21 21 15 11 7 8 7 10 9 15 20 21 13 13 12 9 16 16 16 15 16 21
60 58 53 58 66 65 59 49 48 49 46 43 43 39 37 36 34 31 31 31 30 29 26 22 12 10 11 8 8 9 11 19 21 14 12 12 13 14 13 12 12 16 18
63 64 58 63 67 73 72 64 59 60 54 51 50 46 43 41 39 37 34 31 30 31 28 22 21 15 17 12 9 17 14 16 20 19 18 18 17 18 14 10 11 14 14
73 71 66 64 67 71 74 70 65 61 57 53 51 50 47 43 36 36 35 33 27 22 25 22 23 22 22 18 16 22 20 20 26 25 25 25 21 20 17 14 12 13 14
77 76 73 68 68 70 71 72 69 63 62 60 60 59 55 50 43 41 38 36 35 35 29 31 28 29 29 25 26 25 18 21 35 30 28 28 26 21 18 16 14 12 11
72 80 77 73 70 69 70 74 75 75 76 72 67 64 60 58 53 49 45 42 42 43 41 39 31 35 37 36 36 38 41 27 26 21 33 31 30 26 21 16 15 13 10
65 77 83 80 78 76 75 75 75 79 78 73 70 67 64 62 58 55 52 47 50 47 44 41 41 43 47 49 46 46 46 48 45 32 26 35 36 30 24 19 16 13 10
67 65 76 83 86 82 80 78 80 81 82 79 77 72 69 65 61 61 58 56 52 53 49 42 43 48 51 53 52 54 52 57 54 53 47 36 34 32 28 23 19 14 9
Wind_Direction_500mb
154 156 149 124 120 119 108 110 107 105 103 96 88 81 84 84 90 91 89 86 91 86 82 80 82 80 87 80 80 78 75 70 59 64 84 76 72 72 67 73 78 74 67
148 151 141 127 129 134 132 129 112 109 105 93 82 90 76 91 88 88 87 84 85 83 81 78 79 80 79 84 87 81 75 71 58 60 68 70 64 67 65 66 63 60 57
153 151 130 126 132 140 140 136 134 117 107 99 89 91 89 89 93 87 88 85 83 80 76 76 77 80 86 95 99 97 88 81 68 57 69 72 69 63 61 59 58 56 56
155 140 128 137 134 136 147 147 143 135 118 114 108 103 89 91 107 93 86 86 82 80 79 80 83 86 92 98 103 101 98 93 63 64 68 68 68 63 63 62 60 59 56
151 147 138 130 120 120 127 137 144 135 118 125 120 115 113 94 95 93 93 89 85 82 82 83 84 87 93 100 98 92 80 76 71 69 71 69 65 62 62 60 57 54 52
152 142 135 124 118 116 117 114 118 120 126 131 116 118 108 91 92 90 89 88 85 84 84 86 86 88 92 95 92 87 83 71 69 66 64 65 58 54 53 54 52 48 43
164 154 137 131 125 117 124 122 123 120 122 123 113 104 97 97 97 95 93 87 87 87 88 88 88 89 91 91 90 87 79 77 65 60 55 58 57 40 48 49 41 32 29
165 159 151 143 139 129 130 138 134 131 124 140 115 115 113 107 106 101 95 93 93 92 90 90 91 90 89 89 84 80 81 67 63 55 52 53 65 51 45 43 38 37 39
181 169 158 154 151 144 136 148 148 147 144 117 115 118 119 112 109 103 99 97 95 91 90 91 92 91 88 85 83 80 73 62 57 46 44 42 50 46 45 39 35 33 29
181 180 173 166 162 157 152 155 158 155 146 141 127 123 119 115 108 109 105 99 96 95 94 96 95 93 89 83 75 73 75 46 41 38 33 31 37 40 47 50 39 33 11
190 184 186 179 176 173 169 163 166 162 158 146 138 132 124 121 121 120 114 107 103 101 101 101 100 97 89 83 73 71 78 54 37 34 23 24 39 51 48 46 26 18 15
189 186 184 194 186 186 187 183 173 175 171 163 157 150 135 133 130 128 120 113 110 108 105 99 93 87 81 69 60 70 74 60 47 5 22 20 52 63 42 17 18 18 22
187 192 182 190 199 196 199 191 184 181 178 176 175 165 152 147 142 136 130 127 126 121 115 110 103 88 77 69 57 56 65 4 358 29 17 19 67 14 17 17 19 17 39
193 192 186 188 204 197 200 198 192 191 184 184 188 178 170 170 168 166 152 151 147 144 137 121 107 96 74 41 25 31 23 13 352 341 347 11 9 16 17 20 23 49 6
199 195 193 189 207 212 213 198 195 197 195 193 193 186 185 189 189 186 168 170 162 162 149 128 103 63 31 42 20 20 359 323 318 312 335 343 3 11 16 16 31 5 0
204 204 199 195 206 212 216 212 204 205 205 204 200 198 199 195 204 200 200 207 201 213 201 209 122 87 65 7 2 358 327 315 314 294 273 10 3 30 357 350 350 353 358
214 209 211 203 202 213 218 222 219 213 210 210 209 206 210 205 210 208 211 214 226 213 215 197 200 298 90 256 291 284 282 279 306 268 252 332 349 351 351 347 348 350 357
220 215 213 209 204 211 221 221 223 222 221 215 215 215 217 220 221 225 227 229 231 228 217 211 211 158 326 273 249 265 238 243 290 246 258 292 314 340 341 348 347 346 357
219 219 212 213 211 212 221 223 223 226 227 227 226 226 226 231 231 231 237 244 229 236 222 217 213 229 268 261 280 243 200 263 271 241 250 274 293 328 333 339 349 352 355
220 222 217 215 213 213 221 229 224 226 228 229 232 233 231 232 236 236 241 242 231 230 229 219 222 232 240 253 273 191 240 258 245 260 239 250 294 317 321 325 337 349 358
219 224 224 215 213 213 217 223 222 224 225 227 230 232 235 237 239 236 239 236 234 238 232 224 212 222 239 233 206 180 199 246 260 262 287 276 294 310 311 311 327 346 5
222 223 229 221 216 217 221 225 227 229 231 235 237 237 238 241 241 243 242 242 244 241 222 222 224 231 236 234 236 211 187 204 226 245 268 272 280 296 297 298 318 348 10
218 222 228 227 223 220 222 223 227 229 233 235 234 237 238 241 242 246 247 240 238 233 237 235 237 245 245 244 250 234 211 224 218 231 247 264 275 283 285 291 307 336 358
226 223 229 233 231 229 227 226 227 229 230 234 236 238 240 242 243 246 245 242 236 238 240 245 247 245 245 252 253 253 246 242 204 209 229 244 262 272 279 283 298 322 347
233 227 227 231 233 234 234 233 233 234 237 241 242 242 242 244 245 244 243 242 238 239 243 248 248 252 255 262 260 255 257 245 235 234 223 227 241 250 263 276 282 303 327
238 234 229 230 234 236 238 238 240 240 240 241 243 243 243 244 245 242 242 241 242 242 242 246 256 255 262 264 264 261 265 250 243 234 236 235 236 250 256 262 265 281 295
Wind_Speed_850mb
28 29 18 11 19 24 22 22 22 23 21 21 21 19 17 20 24 25 30 30 26 26 27 28 29 32 30 35 42 42 40 42 45 41 42 44 42 40 41 38 38 38 39
33 30 17 12 16 24 24 22 23 22 20 17 19 25 22 24 25 36 34 34 32 30 30 30 31 32 36 38 43 47 42 39 34 39 38 39 45 39 42 41 39 38 39
33 28 21 15 17 21 23 23 19 17 17 22 22 29 23 26 32 33 32 34 34 32 33 34 35 36 37 39 48 45 40 33 28 32 36 40 41 42 43 42 42 42 43
30 24 19 18 20 22 22 23 21 17 18 24 24 26 24 27 30 32 33 37 32 34 35 37 37 38 38 41 41 38 36 27 20 28 36 40 43 43 43 43 43 43 43
29 26 22 21 24 25 27 30 28 19 24 27 25 26 26 24 26 27 31 32 33 35 36 37 38 38 39 40 40 37 34 33 33 35 37 40 44 40 40 40 40 40 39
27 23 23 25 27 26 31 33 27 30 25 23 26 23 21 17 22 25 26 25 33 35 37 38 38 39 39 39 38 37 35 36 37 35 34 40 41 36 36 38 39 38 37
26 24 26 27 26 29 31 31 27 26 22 21 17 16 17 18 22 24 23 29 32 34 35 36 37 38 38 38 38 38 33 33 34 34 35 34 35 32 35 35 35 34 34
25 28 29 29 28 27 31 33 30 26 17 16 13 15 18 20 23 24 25 28 29 31 33 34 36 37 37 35 33 33 30 27 30 32 30 30 30 25 24 26 28 28 28
26 26 29 27 29 27 28 33 31 25 18 19 16 16 18 20 23 25 24 25 28 29 31 32 33 35 34 31 28 27 27 21 23 26 26 25 22 22 21 21 20 21 20
26 26 27 28 26 27 27 28 28 28 21 15 18 19 19 18 19 22 22 24 26 27 28 27 29 30 29 26 23 22 22 18 18 18 25 25 24 23 25 20 15 14 17
29 25 27 27 27 27 25 26 28 28 24 18 19 19 20 19 19 20 21 23 23 23 23 21 20 19 19 19 21 20 18 14 13 14 20 25 23 22 15 14 14 18 19
38 32 24 25 25 28 28 26 25 27 23 21 19 17 21 19 18 18 18 20 19 18 18 15 14 13 16 16 17 14 12 8 10 13 17 20 20 14 9 17 19 22 26
45 35 29 24 27 21 31 31 28 27 26 24 20 17 20 19 17 15 14 15 14 12 11 12 11 11 13 12 12 11 9 6 7 11 13 14 7 9 19 21 24 28 26
50 41 36 32 29 24 26 29 31 30 29 28 24 19 17 18 16 15 14 12 10 9 7 8 8 6 7 10 11 10 8 6 7 11 11 10 10 13 19 22 26 23 25
57 51 46 44 37 29 28 30 32 33 29 26 24 20 19 18 15 12 11 9 6 5 4 2 4 5 8 13 12 12 12 10 10 10 5 4 8 12 15 19 17 21 30
63 57 51 49 44 36 32 30 30 30 30 29 24 21 18 15 15 13 12 10 8 9 4 2 4 4 7 5 8 8 11 11 13 11 4 5 9 11 15 20 21 24 27
51 55 59 56 49 41 36 36 35 33 33 30 27 28 25 21 20 18 17 15 15 11 10 10 6 1 2 2 8 7 8 11 12 11 8 8 11 15 17 19 21 23 23
49 50 55 61 56 50 45 42 42 39 37 34 32 31 28 25 23 21 20 18 19 13 16 16 8 1 3 3 8 10 12 14 16 12 13 10 7 15 19 16 18 21 21
56 51 52 61 63 58 52 46 45 44 43 38 36 33 31 31 29 26 25 24 22 21 21 15 11 7 8 7 10 9 15 20 21 13 13 12 9 16 16 16 15 16 21
60 58 53 58 66 65 59 49 48 49 46 43 43 39 37 36 34 31 31 31 30 29 26 22 12 10 11 8 8 9 11 19 21 14 12 12 13 14 13 12 12 16 18
63 64 58 63 67 73 72 64 59 60 54 51 50 46 43 41 39 37 34 31 30 31 28 22 21 15 17 12 9 17 14 16 20 19 18 18 17 18 14 10 11 14 14
73 71 66 64 67 71 74 70 65 61 57 53 51 50 47 43 36 36 35 33 27 22 25 22 23 22 22 18 16 22 20 20 26 25 25 25 21 20 17 14 12 13 14
77 76 73 68 68 70 71 72 69 63 62 60 60 59 55 50 43 41 38 36 35 35 29 31 28 29 29 25 26 25 18 21 35 30 28 28 26 21 18 16 14 12 11
72 80 77 73 70 69 70 74 75 75 76 72 67 64 60 58 53 49 45 42 42 43 41 39 31 35 37 36 36 38 41 27 26 21 33 31 30 26 21 16 15 13 10
65 77 83 80 78 76 75 75 75 79 78 73 70 67 64 62 58 55 52 47 50 47 44 41 41 43 47 49 46 46 46 48 45 32 26 35 36 30 24 19 16 13 10
67 65 76 83 86 82 80 78 80 81 82 79 77 72 69 65 61 61 58 56 52 53 49 42 43 48 51 53 52 54 52 57 54 53 47 36 34 32 28 23 19 14 9
Wind_Direction_850mb
154 156 149 124 120 119 108 110 107 105 103 96 88 81 84 84 90 91 89 86 91 86 82 80 82 80 87 80 80 78 75 70 59 64 84 76 72 72 67 73 78 74 67
148 151 141 127 129 134 132 129 112 109 105 93 82 90 76 91 88 88 87 84 85 83 81 78 79 80 79 84 87 81 75 71 58 60 68 70 64 67 65 66 63 60 57
153 151 130 126 132 140 140 136 134 117 107 99 89 91 89 89 93 87 88 85 83 80 76 76 77 80 86 95 99 97 88 81 68 57 69 72 69 63 61 59 58 56 56
155 140 128 137 134 136 147 147 143 135 118 114 108 103 89 91 107 93 86 86 82 80 79 80 83 86 92 98 103 101 98 93 63 64 68 68 68 63 63 62 60 59 56
151 147 138 130 120 120 127 137 144 135 118 125 120 115 113 94 95 93 93 89 85 82 82 83 84 87 93 100 98 92 80 76 71 69 71 69 65 62 62 60 57 54 52
152 142 135 124 118 116 117 114 118 120 126 131 116 118 108 91 92 90 89 88 85 84 84 86 86 88 92 95 92 87 83 71 69 66 64 65 58 54 53 54 52 48 43
164 154 137 131 125 117 124 122 123 120 122 123 113 104 97 97 97 95 93 87 87 87 88 88 88 89 91 91 90 87 79 77 65 60 55 58 57 40 48 49 41 32 29
165 159 151 143 139 129 130 138 134 131 124 140 115 115 113 107 106 101 95 93 93 92 90 90 91 90 89 89 84 80 81 67 63 55 52 53 65 51 45 43 38 37 39
181 169 158 154 151 144 136 148 148 147 144 117 115 118 119 112 109 103 99 97 95 91 90 91 92 91 88 85 83 80 73 62 57 46 44 42 50 46 45 39 35 33 29
181 180 173 166 162 157 152 155 158 155 146 141 127 123 119 115 108 109 105 99 96 95 94 96 95 93 89 83 75 73 75 46 41 38 33 31 37 40 47 50 39 33 11
190 184 186 179 176 173 169 163 166 162 158 146 138 132 124 121 121 120 114 107 103 101 101 101 100 97 89 83 73 71 78 54 37 34 23 24 39 51 48 46 26 18 15
189 186 184 194 186 186 187 183 173 175 171 163 157 150 135 133 130 128 120 113 110 108 105 99 93 87 81 69 60 70 74 60 47 5 22 20 52 63 42 17 18 18 22
187 192 182 190 199 196 199 191 184 181 178 176 175 165 152 147 142 136 130 127 126 121 115 110 103 88 77 69 57 56 65 4 358 29 17 19 67 14 17 17 19 17 39
193 192 186 188 204 197 200 198 192 191 184 184 188 178 170 170 168 166 152 151 147 144 137 121 107 96 74 41 25 31 23 13 352 341 347 11 9 16 17 20 23 49 6
199 195 193 189 207 212 213 198 195 197 195 193 193 186 185 189 189 186 168 170 162 162 149 128 103 63 31 42 20 20 359 323 318 312 335 343 3 11 16 16 31 5 0
204 204 199 195 206 212 216 212 204 205 205 204 200 198 199 195 204 200 200 207 201 213 201 209 122 87 65 7 2 358 327 315 314 294 273 10 3 30 357 350 350 353 358
214 209 211 203 202 213 218 222 219 213 210 210 209 206 210 205 210 208 211 214 226 213 215 197 200 298 90 256 291 284 282 279 306 268 252 332 349 351 351 347 348 350 357
220 215 213 209 204 211 221 221 223 222 221 215 215 215 217 220 221 225 227 229 231 228 217 211 211 158 326 273 249 265 238 243 290 246 258 292 314 340 341 348 347 346 357
219 219 212 213 211 212 221 223 223 226 227 227 226 226 226 231 231 231 237 244 229 236 222 217 213 229 268 261 280 243 200 263 271 241 250 274 293 328 333 339 349 352 355
220 222 217 215 213 213 221 229 224 226 228 229 232 233 231 232 236 236 241 242 231 230 229 219 222 232 240 253 273 191 240 258 245 260 239 250 294 317 321 325 337 349 358
219 224 224 215 213 213 217 223 222 224 225 227 230 232 235 237 239 236 239 236 234 238 232 224 212 222 239 233 206 180 199 246 260 262 287 276 294 310 311 311 327 346 5
222 223 229 221 216 217 221 225 227 229 231 235 237 237 238 241 241 243 242 242 244 241 222 222 224 231 236 234 236 211 187 204 226 245 268 272 280 296 297 298 318 348 10
218 222 228 227 223 220 222 223 227 229 233 235 234 237 238 241 242 246 247 240 238 233 237 235 237 245 245 244 250 234 211 224 218 231 247 264 275 283 285 291 307 336 358
226 223 229 233 231 229 227 226 227 229 230 234 236 238 240 242 243 246 245 242 236 238 240 245 247 245 245 252 253 253 246 242 204 209 229 244 262 272 279 283 298 322 347
233 227 227 231 233 234 234 233 233 234 237 241 242 242 242 244 245 244 243 242 238 239 243 248 248 252 255 262 260 255 257 245 235 234 223 227 241 250 263 276 282 303 327
238 234 229 230 234 236 238 238 240 240 240 241 243 243 243 244 245 242 242 241 242 242 242 246 256 255 262 264 264 261 265 250 243 234 236 235 236 250 256 262 265 281 295